Flag for U.S.A. Weather past 2 weeks in Rapid City, South Dakota, U.S.A.

Now
74 °F

Broken clouds.


Feels Like: 76 °F
Forecast: 64 / 80 °F
Wind: 12 mph from North

Location: Ellsworth Air Force Base

Current Time: Jul 2, 2015 at 12:37:56 PM

Latest Report: Jul 2, 2015 at 11:58 AM


Visibility: 10 mi

Pressure: 30.04 "Hg

Humidity: 67%

Dew point: 62 °F

Location of Rapid CityLocation

Historic Weather in Rapid City — Graph

°F

Rapid City temperature yesterday

Maximum temperature yesterday: 84 °F (at 2:58 PM)
Minimum temperature yesterday: 64 °F (at 4:58 AM)
Average temperature yesterday: 75 °F

Past Weeks' High & Low Weather Summary

 TemperatureHumidityPressure
High89 °F (Jun 29, 4:58 PM)100% (Jun 18, 4:58 AM)30.20 "Hg (Jun 18, 4:58 AM)
Low53 °F (Jun 26, 4:58 AM)26% (Jun 29, 4:58 PM)29.58 "Hg (Jun 19, 8:58 PM)
Average70 °F71%29.98 "Hg
* Reported Jun 17 10:58 AM — Jul 2 10:58 AM, Rapid City, Weather by CustomWeather, © 2015

Note: Actual official high and low records may vary slightly from our data, if they occured in-between our weather recording intervals... More about our weather records

Advertising

Rapid City weather history for previous 24 hours

 ConditionsComfort  
Time TempWeatherWind HumidityBarometerVisibility
10:58 AM
Thu, Jul 2
75 °FScattered clouds.21 mph65%30.03 "Hg10 mi
9:58 AM74 °FPassing clouds.20 mph64%30.04 "Hg10 mi
8:58 AM72 °FPassing clouds.17 mph72%30.03 "Hg10 mi
7:58 AM68 °FPassing clouds.16 mph81%30.01 "Hg10 mi
6:58 AM65 °FSunny.14 mph94%30.00 "Hg10 mi
5:58 AM64 °FSunny.10 mph93%29.99 "Hg10 mi
4:58 AM64 °FPassing clouds.12 mph96%29.98 "Hg8 mi
3:58 AM63 °FPassing clouds.12 mph94%30.02 "Hg10 mi
2:58 AM64 °FMostly cloudy.2 mph95%30.01 "Hg10 mi
1:58 AM64 °FPassing clouds.7 mph98%29.95 "Hg10 mi
12:58 AM63 °FPassing clouds.8 mph95%29.98 "Hg10 mi
11:58 PM
Wed, Jul 1
65 °FThunderstorms. Fog.7 mph89%29.91 "Hg4 mi
10:58 PM70 °FRain. Fog.6 mph89%29.98 "Hg6 mi
9:58 PM72 °FPartly cloudy.7 mph79%29.95 "Hg10 mi
8:58 PM72 °FPassing clouds.5 mph79%29.94 "Hg7 mi
7:58 PM76 °FSunny.6 mph69%29.90 "Hg6 mi
6:58 PM79 °FSunny.10 mph60%29.92 "Hg6 mi
5:58 PM81 °FSunny.8 mph58%29.91 "Hg6 mi
4:58 PM83 °FSunny.14 mph55%29.91 "Hg6 mi
3:58 PM83 °FSunny.13 mph54%29.93 "Hg5 mi
2:58 PM84 °FSunny.16 mph44%29.93 "Hg5 mi
1:58 PM83 °FSunny.20 mph42%29.93 "Hg5 mi
12:58 PM82 °FSunny.21 mph46%29.94 "Hg5 mi
Weather by CustomWeather, © 2015

See weather overviewHow to use our weather pages